РПИ Туркменбаши

Руководитель РПИ

Evgeny Vygornitsky*

Инструкторы РПИ
Evgeny Vygornitsky (Supervisor)
Vitaliy Alekseyev (Instructor)
Входит в состав
ЗЦ Центральная Азия

Диспетчеры РПИ

Диспетчер Рейтинг Допуски *

Аэропорты РПИ

ICAO Город Название Погода
UTAK Туркменбаши Туркменбаши UTAK 020200Z 11012KT CAVOK 26/21 Q1004 R34L/CLRD70 NOSIG